FW8658 Weather Reports


time (UTC)temp
F
wind
direction
speed
knots
gust
knots
rain 1hr
in
rain 24hr
in
rain mn
in
humidity
%
barometer
mb
20260505094058 55 30 3.5 9.6 0.00 0.00 0.00 90 1014.0
20260505093554 55 54 1.7 5.2 0.00 0.00 0.00 90 1013.6
20260505093052 55 24 3.5 9.6 0.00 0.00 0.00 90 1013.8
20260505092549 55 325 3.5 7.0 0.00 0.00 0.00 90 1013.5
20260505092048 55 350 4.3 7.0 0.00 0.00 0.00 90 1013.8
20260505091544 55 343 2.6 4.3 0.00 0.00 0.00 90 1013.6
20260505091043 55 35 1.7 4.3 0.00 0.00 0.00 90 1013.6
20260505090540 55 325 3.5 7.8 0.00 0.00 0.00 90 1013.6
20260505090038 55 9 2.6 5.2 0.00 0.00 0.00 90 1013.4
20260505085536 55 28 2.6 4.3 0.00 0.00 0.00 90 1013.3
20260505085034 55 10 1.7 2.6 0.00 0.00 0.00 90 1013.8
20260505084531 55 3 2.6 7.0 0.00 0.00 0.00 90 1013.6
20260505084029 55 21 6.1 7.8 0.00 0.00 0.00 90 1013.4
20260505083526 55 60 0.9 5.2 0.00 0.00 0.00 90 1013.3
20260505083023 55 28 4.3 5.2 0.00 0.00 0.00 90 1013.4
20260505082518 55 21 1.7 5.2 0.00 0.00 0.00 90 1013.3
20260505082015 55 352 3.5 5.2 0.00 0.00 0.00 90 1013.3
20260505081512 55 339 4.3 7.0 0.00 0.00 0.00 90 1013.4
20260505081009 55 17 3.5 7.8 0.00 0.00 0.00 90 1013.4
20260505080505 55 340 2.6 4.3 0.00 0.00 0.00 90 1013.3
20260505080001 55 329 5.2 7.0 0.00 0.00 0.00 90 1013.1
20260505075458 55 353 2.6 7.0 0.00 0.00 0.00 90 1013.3
20260505074955 55 27 2.6 4.3 0.00 0.00 0.00 90 1013.2
20260505074452 55 12 2.6 7.8 0.00 0.00 0.00 90 1013.0
20260505073949 55 16 2.6 4.3 0.00 0.00 0.00 90 1013.1
20260505073447 55 34 2.6 7.8 0.00 0.00 0.00 90 1013.0
20260505072944 55 14 5.2 7.8 0.00 0.00 0.00 90 1012.9
20260505072440 55 347 6.1 7.8 0.00 0.00 0.00 90 1012.9
20260505071936 55 38 0.9 7.8 0.00 0.00 0.00 90 1012.8
20260505071432 55 334 1.7 2.6 0.00 0.00 0.00 90 1012.6
20260505070931 55 329 2.6 4.3 0.00 0.00 0.00 90 1013.0
20260505070427 55 5 7.8 10.4 0.00 0.00 0.00 90 1012.9
20260505065923 55 334 0.9 4.3 0.00 0.00 0.00 90 1012.6
20260505065419 55 29 1.7 4.3 0.00 0.00 0.00 90 1012.4
20260505064916 55 31 5.2 9.6 0.00 0.00 0.00 90 1012.3
20260505064413 55 49 1.7 7.8 0.00 0.00 0.00 90 1012.2
20260505063912 55 348 2.6 7.0 0.00 0.00 0.00 90 1012.3
20260505063407 55 18 5.2 9.6 0.00 0.00 0.00 90 1012.3
20260505062904 55 75 0.9 14.8 0.00 0.00 0.00 90 1012.1
20260505062402 55 37 4.3 10.4 0.00 0.00 0.00 90 1012.1
20260505061858 55 2 5.2 9.6 0.00 0.00 0.00 90 1012.0
20260505061357 55 359 9.6 10.4 0.00 0.00 0.00 90 1012.1
20260505060854 55 359 9.6 13.0 0.00 0.00 0.00 90 1012.1
20260505060350 55 331 3.5 4.3 0.00 0.00 0.00 90 1012.1
20260505055846 55 21 6.1 9.6 0.00 0.00 0.00 90 1012.1
20260505055342 55 27 2.6 9.6 0.00 0.00 0.00 90 1011.8
20260505054840 55 35 4.3 7.0 0.00 0.00 0.00 90 1012.1
20260505054337 55 349 5.2 7.8 0.00 0.00 0.00 90 1012.0
20260505053835 55 4 6.1 7.0 0.00 0.00 0.00 90 1011.9
20260505053332 55 30 2.6 7.8 0.00 0.00 0.00 90 1012.0
20260505052828 55 13 3.5 7.0 0.00 0.00 0.00 90 1012.0
20260505052326 55 38 1.7 10.4 0.00 0.00 0.00 90 1011.9
20260505051823 55 23 2.6 5.2 0.00 0.00 0.00 89 1011.9
20260505051320 55 18 3.5 5.2 0.00 0.00 0.00 89 1011.9
20260505050818 55 10 1.7 2.6 0.00 0.00 0.00 89 1012.0
20260505050317 56 331 1.7 4.3 0.00 0.00 0.00 88 1011.7
20260505041746 58 325 1.7 5.2 0.00 0.00 0.00 84 1011.3
20260505041243 58 335 2.6 10.4 0.00 0.00 0.00 84 1011.4
20260505040741 59 332 1.7 5.2 0.00 0.00 0.00 83 1011.3
20260505040238 59 339 7.0 10.4 0.00 0.00 0.00 82 1011.3
20260505035735 59 20 4.3 7.8 0.00 0.00 0.00 82 1011.2
20260505035231 60 350 3.5 5.2 0.00 0.00 0.00 81 1011.1
20260505034728 60 31 1.7 4.3 0.00 0.00 0.00 81 1011.0
20260505034224 60 45 0.9 5.2 0.00 0.00 0.00 80 1010.9
20260505033721 60 50 2.6 12.2 0.00 0.00 0.00 79 1010.7
20260505033219 61 45 2.6 7.8 0.00 0.00 0.00 79 1010.6
20260505032717 61 93 1.7 5.2 0.00 0.00 0.00 78 1010.5
20260505032212 62 105 0.0 1.7 0.00 0.00 0.00 78 1010.4
20260505031710 62 348 2.6 7.0 0.00 0.00 0.00 77 1010.4
20260505031206 62 31 1.7 7.0 0.00 0.00 0.00 76 1010.2
20260505030703 63 40 2.6 10.4 0.00 0.00 0.00 76 1010.5
20260505030159 63 15 4.3 5.2 0.00 0.00 0.00 76 1010.1
20260505025655 64 25 4.3 9.6 0.00 0.00 0.00 75 1010.3
20260505025154 64 7 3.5 5.2 0.00 0.00 0.00 74 1010.0
20260505024651 64 16 7.0 9.6 0.00 0.00 0.00 74 1010.0
20260505024148 65 4 4.3 7.0 0.00 0.00 0.00 74 1010.0
20260505023646 65 326 4.3 7.0 0.00 0.00 0.00 73 1010.0
20260505023143 65 307 3.5 7.8 0.00 0.00 0.00 72 1009.7
20260505022640 66 355 5.2 9.6 0.00 0.00 0.00 72 1009.7
20260505022137 66 340 6.1 7.8 0.00 0.00 0.00 71 1009.6
20260505021634 66 10 5.2 12.2 0.00 0.00 0.00 70 1009.7
20260505021130 67 338 2.6 12.2 0.00 0.00 0.00 70 1009.8
20260505020626 67 25 5.2 7.0 0.00 0.00 0.00 69 1009.8
20260505020122 68 359 8.7 10.4 0.00 0.00 0.00 68 1009.5
20260505015620 68 336 6.1 10.4 0.00 0.00 0.00 68 1009.7
20260505015116 68 353 4.3 5.2 0.00 0.00 0.00 68 1009.8
20260505014613 69 42 2.6 5.2 0.00 0.00 0.00 67 1009.8
20260505014110 69 348 1.7 2.6 0.00 0.00 0.00 68 1009.6
20260505013607 69 330 7.0 7.8 0.00 0.00 0.00 67 1009.6
20260505013104 70 57 0.0 7.0 0.00 0.00 0.00 67 1009.6
20260505012602 70 314 6.1 7.8 0.00 0.00 0.00 65 1009.7
20260505012059 71 341 6.1 7.8 0.00 0.00 0.00 65 1009.8
20260505011554 71 3 5.2 7.8 0.00 0.00 0.00 65 1009.7
20260505011052 71 38 2.6 2.6 0.00 0.00 0.00 65 1009.6
20260505010547 71 334 5.2 7.0 0.00 0.00 0.00 64 1009.5
20260505010044 72 41 1.7 4.3 0.00 0.00 0.00 64 1009.7
20260505005540 72 33 3.5 7.0 0.00 0.00 0.00 65 1009.5
20260505005038 72 9 0.0 1.7 0.00 0.00 0.00 68 1009.8
20260505004535 72 129 2.6 2.6 0.00 0.00 0.00 68 1009.8
20260505004032 73 347 3.5 4.3 0.00 0.00 0.00 68 1009.6
20260505003529 73 80 1.7 2.6 0.00 0.00 0.00 68 1009.8
20260505003026 73 81 0.0 0.0 0.00 0.00 0.00 66 1009.6
20260505002521 73 80 1.7 5.2 0.00 0.00 0.00 67 1009.8
20260505002020 73 74 0.9 2.6 0.00 0.00 0.00 66 1009.9
20260505001517 73 123 0.9 2.6 0.00 0.00 0.00 67 1009.7
20260505001014 72 148 2.6 4.3 0.00 0.00 0.00 68 1009.9
20260505000512 73 152 4.3 7.8 0.00 0.00 0.00 67 1010.1
20260505000009 73 110 1.7 4.3 0.00 0.00 0.00 67 1009.9
20260504235506 73 139 3.5 4.3 0.00 0.00 0.00 67 1009.9
20260504235002 72 117 0.9 4.3 0.00 0.00 0.00 67 1009.8
20260504234459 72 97 2.6 4.3 0.00 0.00 0.00 67 1009.9
20260504233956 72 125 2.6 5.2 0.00 0.00 0.00 69 1009.9
20260504233451 72 141 5.2 7.8 0.00 0.00 0.00 68 1010.0
20260504232949 73 151 2.6 4.3 0.00 0.00 0.00 67 1009.8
20260504232446 72 149 2.6 2.6 0.00 0.00 0.00 67 1009.9
20260504231943 73 90 0.9 2.6 0.00 0.00 0.00 66 1009.7
20260504231439 73 121 2.6 5.2 0.00 0.00 0.00 66 1010.1
20260504230935 73 119 2.6 5.2 0.00 0.00 0.00 67 1009.8
20260504230432 73 135 1.7 1.7 0.00 0.00 0.00 67 1010.1
20260504225932 72 128 1.7 5.2 0.00 0.00 0.00 67 1010.1
20260504225428 72 94 2.6 5.2 0.00 0.00 0.00 66 1010.0
20260504224925 72 178 4.3 7.8 0.00 0.00 0.00 68 1009.9
20260504224421 72 147 1.7 4.3 0.00 0.00 0.00 68 1010.0
20260504223919 71 153 4.3 7.8 0.00 0.00 0.00 68 1010.1
20260504223414 72 115 3.5 5.2 0.00 0.00 0.00 67 1010.5
20260504222910 72 158 2.6 5.2 0.00 0.00 0.00 68 1010.3
20260504222408 72 136 4.3 4.3 0.00 0.00 0.00 69 1010.6
20260504221906 72 102 0.0 1.7 0.00 0.00 0.00 70 1010.3
20260504221402 71 110 3.5 7.0 0.00 0.00 0.00 68 1010.7
20260504220859 71 114 5.2 7.0 0.00 0.00 0.00 69 1010.9
20260504220356 71 118 0.0 7.8 0.00 0.00 0.00 69 1010.6
20260504215853 71 125 1.7 4.3 0.00 0.00 0.00 67 1010.7
20260504215349 71 81 1.7 4.3 0.00 0.00 0.00 67 1010.8
20260504214846 71 152 2.6 4.3 0.00 0.00 0.00 68 1010.7
20260504214343 72 119 1.7 5.2 0.00 0.00 0.00 70 1010.8
20260504213840 71 133 5.2 7.8 0.00 0.00 0.00 67 1010.9
20260504213335 71 103 1.7 4.3 0.00 0.00 0.00 69 1010.9
20260504212833 71 159 1.7 2.6 0.00 0.00 0.00 68 1011.1
20260504212329 71 111 3.5 5.2 0.00 0.00 0.00 68 1011.1
20260504211827 70 184 6.1 7.0 0.00 0.00 0.00 69 1011.3
20260504211322 70 91 0.9 4.3 0.00 0.00 0.00 68 1011.2
20260504210820 71 76 2.6 7.8 0.00 0.00 0.00 69 1011.3
20260504210317 70 112 2.6 9.6 0.00 0.00 0.00 69 1011.3
20260504205814 70 71 1.7 4.3 0.00 0.00 0.00 68 1011.6
20260504205312 69 153 4.3 7.0 0.00 0.00 0.00 70 1011.6
20260504204810 69 81 0.0 2.6 0.00 0.00 0.00 69 1011.7
20260504204308 69 133 2.6 4.3 0.00 0.00 0.00 70 1011.6
20260504203807 70 146 6.1 7.0 0.00 0.00 0.00 69 1011.6
20260504203304 69 65 1.7 7.0 0.00 0.00 0.00 69 1011.6
20260504202758 69 158 2.6 4.3 0.00 0.00 0.00 68 1011.6
20260504202256 68 74 0.9 7.0 0.00 0.00 0.00 69 1012.0
20260504201753 69 81 0.9 7.8 0.00 0.00 0.00 72 1011.9
20260504201250 68 151 2.6 5.2 0.00 0.00 0.00 71 1012.0
20260504200748 69 174 3.5 5.2 0.00 0.00 0.00 70 1011.9
20260504200243 68 147 5.2 7.8 0.00 0.00 0.00 72 1011.9
20260504195740 68 94 2.6 5.2 0.00 0.00 0.00 70 1011.8
20260504195236 68 115 4.3 7.0 0.00 0.00 0.00 73 1012.0
20260504194733 67 76 1.7 4.3 0.00 0.00 0.00 71 1012.1
20260504194229 68 94 2.6 9.6 0.00 0.00 0.00 71 1012.3
20260504193726 68 120 1.7 7.8 0.00 0.00 0.00 71 1012.1
20260504193223 68 93 2.6 4.3 0.00 0.00 0.00 71 1012.0
20260504192722 68 100 2.6 4.3 0.00 0.00 0.00 70 1012.2
20260504192219 67 78 1.7 5.2 0.00 0.00 0.00 71 1012.0
20260504191718 68 103 3.5 7.8 0.00 0.00 0.00 75 1012.2
20260504191214 67 161 4.3 7.0 0.00 0.00 0.00 71 1012.4
20260504190709 67 72 0.0 4.3 0.00 0.00 0.00 72 1012.6
20260504190206 67 86 1.7 7.0 0.00 0.00 0.00 72 1012.5
20260504185703 67 183 5.2 7.8 0.00 0.00 0.00 72 1012.6
20260504185159 66 132 1.7 7.0 0.00 0.00 0.00 73 1012.6
20260504184655 66 108 1.7 2.6 0.00 0.00 0.00 73 1012.7
20260504184151 66 122 5.2 7.0 0.00 0.00 0.00 73 1012.3
20260504183648 66 91 0.9 4.3 0.00 0.00 0.00 73 1012.7
20260504183145 66 70 0.9 4.3 0.00 0.00 0.00 73 1012.3
20260504182643 67 78 0.9 5.2 0.00 0.00 0.00 73 1012.3
20260504182140 67 94 2.6 5.2 0.00 0.00 0.00 71 1012.6
20260504181637 67 80 1.7 2.6 0.00 0.00 0.00 72 1012.4
20260504181135 66 116 3.5 5.2 0.00 0.00 0.00 74 1012.4
20260504180634 66 137 2.6 4.3 0.00 0.00 0.00 75 1012.5
20260504180132 65 105 2.6 5.2 0.00 0.00 0.00 75 1012.4
20260504175629 66 122 1.7 5.2 0.00 0.00 0.00 76 1012.7
20260504175125 65 89 0.0 2.6 0.00 0.00 0.00 74 1012.4
20260504174624 65 135 5.2 7.8 0.00 0.00 0.00 75 1012.7
20260504174120 65 83 1.7 4.3 0.00 0.00 0.00 74 1012.5
20260504173617 65 100 2.6 4.3 0.00 0.00 0.00 75 1012.3
20260504173115 65 159 4.3 7.8 0.00 0.00 0.00 76 1012.4
20260504172611 64 86 0.9 2.6 0.00 0.00 0.00 75 1012.6
20260504172108 63 130 2.6 5.2 0.00 0.00 0.00 77 1012.6
20260504171604 63 139 6.1 7.8 0.00 0.00 0.00 77 1012.7
20260504171101 63 115 2.6 5.2 0.00 0.00 0.00 76 1012.8
20260504170557 63 136 3.5 7.8 0.00 0.00 0.00 76 1012.5
20260504150941 58 353 4.3 7.8 0.00 0.00 0.00 84 1011.9
20260504150438 58 4 2.6 5.2 0.00 0.00 0.00 85 1012.1
20260504140904 57 355 2.6 5.2 0.00 0.00 0.00 86 1011.7
20260504140400 57 14 2.6 5.2 0.00 0.00 0.00 86 1011.4
20260504130325 57 48 1.7 4.3 0.00 0.00 0.00 85 1010.4
20260504120248 58 16 1.7 2.6 0.00 0.00 0.00 82 1009.2
20260504110716 60 50 1.7 5.2 0.00 0.00 0.00 77 1008.9
20260504110212 61 316 2.6 4.3 0.00 0.00 0.00 77 1008.4
20260504100131 64 0 5.2 12.2 0.00 0.00 0.00 72 1007.8